When you browse on this site, cookies collect data to enhance your experience and personalize the content and advertising you see.
Visit our Privacy Policy to learn more. By continuing to use the site, you agree to this use of cookies and data.
  • In Portugal
  • List of Countries
  • For 7 days
  • Water Temperature
  • Satellite Maps
  • Weather Map
  • Weather Widgets
  • user-avatar
    Login

    Hourly Weather Sari

    Today, 21 March, Thursday

    Time Temperature Precipitation Wind Pressure Humidity
    00:00 +8°C° 0.1 mm 2 mps 762 mmHg 90%
    01:00 +9°C° 0.1 mm 1 mps 762 mmHg 90%
    02:00 +9°C° 0 mm 1 mps 762 mmHg 90%
    03:00 +8°C° 0 mm 1 mps 762 mmHg 91%
    04:00 +8°C° 0 mm 1 mps 761 mmHg 94%
    05:00 +8°C° 0.1 mm 1 mps 761 mmHg 94%
    06:00 +8°C° 0.1 mm 1 mps 762 mmHg 94%
    07:00 +9°C° 0.1 mm 1 mps 762 mmHg 94%
    08:00 +9°C° 0.2 mm 1 mps 762 mmHg 93%
    09:00 +9°C° 0.2 mm 1 mps 762 mmHg 91%
    10:00 +10°C° 0 mm 1 mps 762 mmHg 90%
    11:00 +10°C° 0.1 mm 1 mps 762 mmHg 89%
    12:00 +9°C° 0.1 mm 2 mps 762 mmHg 88%
    13:00 +10°C° 0.1 mm 2 mps 762 mmHg 87%
    14:00 +10°C° 0.2 mm 2 mps 762 mmHg 87%
    15:00 +9°C° 0.2 mm 2 mps 762 mmHg 87%
    16:00 +9°C° 0.2 mm 2 mps 761 mmHg 88%
    17:00 +9°C° 0.3 mm 2 mps 762 mmHg 89%
    18:00 +9°C° 0.3 mm 2 mps 762 mmHg 90%
    19:00 +8°C° 0.3 mm 2 mps 762 mmHg 92%
    20:00 +8°C° 0.2 mm 2 mps 762 mmHg 92%
    21:00 +9°C° 0.2 mm 1 mps 762 mmHg 92%
    22:00 +9°C° 0.2 mm 1 mps 763 mmHg 92%
    23:00 +9°C° 0 mm 1 mps 763 mmHg 92%

    Tomorrow, 22 March, Friday

    Time Temperature Precipitation Wind Pressure Humidity
    00:00 +9°C° 0 mm 1 mps 763 mmHg 91%
    01:00 +9°C° 0 mm 1 mps 762 mmHg 90%
    02:00 +9°C° 0 mm 1 mps 762 mmHg 89%
    03:00 +8°C° 0 mm 1 mps 762 mmHg 88%
    04:00 +8°C° 0 mm 1 mps 762 mmHg 87%
    05:00 +8°C° 0 mm 1 mps 763 mmHg 85%
    06:00 +8°C° 0 mm 1 mps 763 mmHg 83%
    07:00 +8°C° 0 mm 1 mps 763 mmHg 81%
    08:00 +10°C° 0 mm 1 mps 763 mmHg 73%
    09:00 +12°C° 0 mm 1 mps 763 mmHg 65%
    10:00 +14°C° 0 mm 1 mps 763 mmHg 57%
    11:00 +15°C° 0 mm 1 mps 763 mmHg 55%
    12:00 +16°C° 0 mm 2 mps 762 mmHg 53%
    13:00 +17°C° 0 mm 2 mps 762 mmHg 50%
    14:00 +17°C° 0 mm 3 mps 762 mmHg 52%
    15:00 +17°C° 0 mm 3 mps 761 mmHg 54%
    16:00 +15°C° 0 mm 4 mps 761 mmHg 56%
    17:00 +14°C° 0 mm 3 mps 761 mmHg 62%
    18:00 +13°C° 0 mm 2 mps 761 mmHg 68%
    19:00 +12°C° 0 mm 2 mps 761 mmHg 75%
    20:00 +12°C° 0 mm 2 mps 761 mmHg 73%
    21:00 +10°C° 0 mm 2 mps 761 mmHg 72%
    22:00 +10°C° 0 mm 2 mps 761 mmHg 71%
    23:00 +11°C° 0 mm 1 mps 761 mmHg 68%

    Day after tomorrow, 23 March, Saturday

    Time Temperature Precipitation Wind Pressure Humidity
    00:00 +10°C° 0 mm 1 mps 761 mmHg 66%
    01:00 +10°C° 0 mm 1 mps 761 mmHg 64%
    02:00 +10°C° 0 mm 1 mps 761 mmHg 61%
    03:00 +10°C° 0 mm 1 mps 761 mmHg 58%
    04:00 +10°C° 0 mm 1 mps 761 mmHg 56%
    05:00 +10°C° 0 mm 1 mps 761 mmHg 55%
    06:00 +10°C° 0 mm 1 mps 761 mmHg 55%
    07:00 +10°C° 0 mm 1 mps 761 mmHg 54%
    08:00 +12°C° 0 mm 1 mps 761 mmHg 50%
    09:00 +14°C° 0 mm 1 mps 761 mmHg 45%
    10:00 +16°C° 0 mm 2 mps 761 mmHg 41%
    11:00 +17°C° 0 mm 2 mps 760 mmHg 41%
    12:00 +18°C° 0 mm 3 mps 760 mmHg 40%
    13:00 +19°C° 0 mm 4 mps 759 mmHg 40%
    14:00 +19°C° 0 mm 4 mps 759 mmHg 42%
    15:00 +19°C° 0 mm 4 mps 758 mmHg 43%
    16:00 +18°C° 0 mm 4 mps 757 mmHg 45%
    17:00 +17°C° 0 mm 3 mps 757 mmHg 51%
    18:00 +15°C° 0 mm 2 mps 757 mmHg 56%
    19:00 +13°C° 0 mm 1 mps 757 mmHg 62%
    20:00 +13°C° 0 mm 1 mps 757 mmHg 61%
    21:00 +13°C° 0 mm 1 mps 757 mmHg 59%
    22:00 +13°C° 0 mm 1 mps 757 mmHg 58%
    23:00 +13°C° 0 mm 1 mps 757 mmHg 55%

    24 March, Sunday

    Time Temperature Precipitation Wind Pressure Humidity
    00:00 +13°C° 0 mm 1 mps 756 mmHg 53%
    01:00 +13°C° 0 mm 2 mps 756 mmHg 50%
    02:00 +13°C° 0 mm 1 mps 756 mmHg 49%
    03:00 +13°C° 0 mm 1 mps 756 mmHg 49%
    04:00 +13°C° 0 mm 1 mps 756 mmHg 48%
    05:00 +13°C° 0 mm 1 mps 756 mmHg 49%
    06:00 +13°C° 0 mm 1 mps 756 mmHg 50%
    07:00 +13°C° 0 mm 2 mps 756 mmHg 50%
    08:00 +15°C° 0 mm 1 mps 756 mmHg 47%
    09:00 +19°C° 0 mm 1 mps 755 mmHg 43%
    10:00 +22°C° 0 mm 1 mps 755 mmHg 39%
    11:00 +21°C° 0 mm 2 mps 755 mmHg 40%
    12:00 +22°C° 0 mm 3 mps 755 mmHg 40%
    13:00 +22°C° 0 mm 3 mps 754 mmHg 41%
    14:00 +22°C° 0 mm 3 mps 754 mmHg 42%
    15:00 +21°C° 0 mm 3 mps 753 mmHg 44%
    16:00 +21°C° 0 mm 3 mps 753 mmHg 45%
    17:00 +19°C° 0 mm 2 mps 753 mmHg 51%
    18:00 +17°C° 0 mm 2 mps 753 mmHg 58%
    19:00 +15°C° 0 mm 2 mps 753 mmHg 64%
    20:00 +15°C° 0 mm 2 mps 753 mmHg 65%
    21:00 +15°C° 0 mm 2 mps 753 mmHg 65%
    22:00 +15°C° 0 mm 2 mps 753 mmHg 65%
    23:00 +14°C° 0 mm 2 mps 753 mmHg 66%

    25 March, Monday

    Time Temperature Precipitation Wind Pressure Humidity
    00:00 +14°C° 0 mm 2 mps 753 mmHg 67%
    01:00 +13°C° 0 mm 3 mps 753 mmHg 68%
    02:00 +12°C° 0 mm 3 mps 753 mmHg 74%
    03:00 +12°C° 0 mm 3 mps 754 mmHg 79%
    04:00 +11°C° 0 mm 3 mps 754 mmHg 84%
    05:00 +11°C° 0 mm 3 mps 754 mmHg 86%
    06:00 +11°C° 0 mm 3 mps 755 mmHg 88%
    07:00 +10°C° 0 mm 3 mps 755 mmHg 90%
    08:00 +11°C° 0 mm 3 mps 755 mmHg 89%
    09:00 +11°C° 0 mm 3 mps 756 mmHg 87%
    10:00 +12°C° 0 mm 3 mps 756 mmHg 85%
    11:00 +11°C° 0 mm 3 mps 756 mmHg 87%
    12:00 +11°C° 0 mm 3 mps 756 mmHg 88%
    13:00 +11°C° 0 mm 3 mps 756 mmHg 89%
    14:00 +11°C° 0 mm 3 mps 755 mmHg 90%
    15:00 +10°C° 0 mm 3 mps 755 mmHg 91%
    16:00 +10°C° 0 mm 3 mps 755 mmHg 91%
    17:00 +10°C° 0.1 mm 2 mps 755 mmHg 92%
    18:00 +9°C° 0.1 mm 2 mps 755 mmHg 93%
    19:00 +9°C° 0.1 mm 2 mps 754 mmHg 94%
    20:00 +9°C° 0 mm 2 mps 755 mmHg 94%
    21:00 +9°C° 0 mm 2 mps 755 mmHg 94%
    22:00 +8°C° 0 mm 2 mps 755 mmHg 95%
    23:00 +8°C° 0.1 mm 2 mps 755 mmHg 95%

    26 March, Tuesday

    Time Temperature Precipitation Wind Pressure Humidity
    00:00 +8°C° 0.1 mm 2 mps 754 mmHg 95%
    01:00 +8°C° 0.1 mm 2 mps 754 mmHg 95%
    02:00 +8°C° 0.1 mm 2 mps 754 mmHg 95%
    03:00 +8°C° 0.1 mm 2 mps 753 mmHg 95%
    04:00 +8°C° 0.1 mm 1 mps 753 mmHg 95%
    05:00 +8°C° 0.2 mm 2 mps 753 mmHg 95%
    06:00 +8°C° 0.2 mm 2 mps 753 mmHg 95%
    07:00 +8°C° 0.2 mm 2 mps 753 mmHg 95%
    08:00 +8°C° 1 mm 2 mps 753 mmHg 94%
    09:00 +9°C° 1 mm 2 mps 753 mmHg 94%
    10:00 +9°C° 1 mm 2 mps 753 mmHg 93%
    11:00 +9°C° 0.8 mm 2 mps 753 mmHg 92%
    12:00 +10°C° 0.8 mm 2 mps 753 mmHg 92%
    13:00 +10°C° 0.8 mm 2 mps 753 mmHg 91%
    14:00 +10°C° 0.2 mm 2 mps 752 mmHg 92%
    15:00 +10°C° 0.2 mm 2 mps 752 mmHg 92%
    16:00 +10°C° 0.2 mm 3 mps 752 mmHg 93%
    17:00 +10°C° 0.2 mm 2 mps 752 mmHg 94%
    18:00 +9°C° 0.2 mm 2 mps 752 mmHg 94%
    19:00 +9°C° 0.2 mm 2 mps 753 mmHg 95%
    20:00 +9°C° 0.1 mm 2 mps 753 mmHg 95%
    21:00 +8°C° 0.1 mm 2 mps 753 mmHg 95%
    22:00 +8°C° 0.1 mm 2 mps 754 mmHg 96%
    23:00 +8°C° 0.1 mm 2 mps 754 mmHg 96%
    Show more